STARLINK-35954

Last updated on Fri Dec 19 2025 00:02:08 GMT+0000 (Coordinated Universal Time)

1 66885U 25283H 25352.58336806 -.01328734 00000+0 -82187-2 0 9996 2 66885 53.1554 44.4218 0001173 66.9905 64.3055 15.78932483 3363
UTC large
Height (km)
Speed (km/s)
/
Latitude / Longitude
Inclination (degrees)
Orbital Period (minutes)
Azimuth
Elevation
Range (km)
Doppler Factor

Next 0 passes for location: London (51.5072 / 0.1276)

Sorry there are no passes over London.